R/V Atlantis Calliope CSV data file  (Time stamps are GMT)
Date, Time_GMT, Dec_Lat, Dec_Lon, Depth12, Depth35, GPS_COG, GPS_SOG, Gyro, Air_Temp, IMET_BPR, IMET_SWR, HRH, PhinsHd, SBE45C, SBE45S, SBE45T, Salinity, SSTMP, SSV, SSCND, SST_FSI, SST_SBE48, Wnd_Dir, Wnd_Spd, HdChkSum=1B
2009/03/18, 00:00:02, 6.934117, -104.813500, , , 340.0, 12.20, 340.8, 26.984, 1007.83, 211.0, 72.894, 340.3, , , , 33.4010, 27.4326, 1538.3561, 53.3551, 27.3097, 27.4326, 68.9, 6.1533, 1B
2009/03/18, 00:01:02, 6.937283, -104.814767, , , 340.0, 12.20, 341.7, 26.992, 1007.81, 203.3, 73.285, 341.1, , , , 33.4126, 27.4345, 1538.3747, 53.3744, 27.3147, 27.4345, 73.2, 5.9366, 1B
2009/03/18, 00:02:01, 6.940467, -104.815983, , , 339.0, 12.40, 341.0, 27.000, 1007.69, 205.6, 73.600, 339.8, , , , 33.4026, 27.4365, 1538.3682, 53.3620, 27.3156, 27.4365, 76.1, 6.3818, 1B
2009/03/18, 00:03:02, 6.943650, -104.817283, , , 338.0, 12.30, 340.6, 27.007, 1007.80, 201.5, 73.078, 339.6, , , , 33.4090, 27.4393, 1538.3817, 53.3742, 27.3297, 27.4393, 76.0, 6.2111, 1B
2009/03/18, 00:04:01, 6.946833, -104.818567, , , 339.0, 12.30, 341.1, 27.007, 1007.82, 199.3, 73.078, 340.6, , , , 33.4094, 27.4434, 1538.3896, 53.3781, 27.3391, 27.4434, 73.6, 6.0938, 1B
2009/03/18, 00:05:02, 6.950033, -104.819800, , , 340.0, 12.30, 340.8, 26.992, 1007.86, 191.5, 72.526, 339.9, , , , 33.3826, 27.4432, 1538.3626, 53.3407, 27.3046, 27.4432, 72.0, 5.9919, 1B
2009/03/18, 00:06:02, 6.953217, -104.821033, , , 339.0, 12.30, 341.5, 27.015, 1007.75, 189.8, 73.308, 340.7, , , , 33.3980, 27.4441, 1538.3809, 53.3634, 27.3199, 27.4441, 73.8, 6.4337, 1B
2009/03/18, 00:07:01, 6.956417, -104.822267, , , 338.0, 12.20, 340.7, 27.015, 1007.89, 188.4, 74.604, 340.2, , , , 33.3959, 27.4420, 1538.3753, 53.3590, 27.3199, 27.4420, 78.3, 5.7561, 1B
2009/03/18, 00:08:01, 6.959617, -104.823483, , , 341.0, 12.30, 340.8, 27.015, 1007.75, 185.2, 74.604, 340.9, , , , 33.3741, 27.4378, 1538.3412, 53.3230, 27.2889, 27.4378, 74.6, 5.8618, 1B
2009/03/18, 00:09:02, 6.962800, -104.824700, , , 336.0, 12.20, 340.3, 26.984, 1007.90, 183.8, 73.845, 339.6, , , , 33.3708, 27.4328, 1538.3266, 53.3133, 27.2779, 27.4328, 70.6, 5.9376, 1B
2009/03/18, 00:10:02, 6.965967, -104.825933, , , 338.0, 12.00, 340.3, 26.992, 1007.88, 181.4, 74.558, 339.5, , , , 33.3619, 27.4251, 1538.2998, 53.2928, 27.2720, 27.4251, 74.9, 5.7393, 1B
2009/03/18, 00:11:01, 6.969150, -104.827183, , , 340.0, 12.10, 340.3, 26.992, 1007.75, 176.5, 74.642, 339.9, , , , 33.3823, 27.4225, 1538.3165, 53.3196, 27.2864, 27.4225, 74.5, 5.3160, 1B
2009/03/18, 00:12:01, 6.972300, -104.828400, , , 338.0, 12.10, 340.4, 26.992, 1007.90, 171.6, 75.317, 339.6, , , , 33.4037, 27.4175, 1538.3319, 53.3468, 27.2911, 27.4175, 77.7, 5.8171, 1B
2009/03/18, 00:13:02, 6.975450, -104.829667, , , 339.0, 12.10, 342.4, 26.977, 1007.60, 166.1, 74.979, 341.1, , , , 33.3914, 27.4168, 1538.3123, 53.3263, 27.2905, 27.4168, 76.1, 5.8588, 1B
2009/03/18, 00:14:02, 6.978633, -104.830867, , , 341.0, 12.50, 341.1, 26.977, 1007.84, 159.7, 74.619, 340.7, , , , 33.3879, 27.4147, 1538.3039, 53.3192, 27.2809, 27.4147, 76.4, 5.6993, 1B
2009/03/18, 00:15:02, 6.981783, -104.832117, , , 339.0, 11.80, 340.8, 26.977, 1007.81, 157.5, 74.795, 340.1, , , , 33.3791, 27.4137, 1538.2923, 53.3058, 27.2833, 27.4137, 72.8, 5.4816, 1B
2009/03/18, 00:16:01, 6.984933, -104.833317, , , 340.0, 12.00, 341.5, 26.969, 1007.87, 153.0, 73.592, 340.2, , , , 33.3861, 27.4123, 1538.2959, 53.3140, 27.2888, 27.4123, 72.0, 6.2898, 1B
2009/03/18, 00:17:02, 6.988100, -104.834533, , , 341.0, 12.20, 341.1, 26.984, 1007.84, 150.6, 74.742, 340.6, , , , 33.3579, 27.4090, 1538.2593, 53.2709, 27.2529, 27.4090, 80.7, 5.3114, 1B
2009/03/18, 00:18:01, 6.991267, -104.835717, , , 339.0, 11.90, 340.3, 26.984, 1007.90, 151.8, 74.742, 340.5, , , , 33.3770, 27.4050, 1538.2716, 53.2944, 27.2674, 27.4050, 79.8, 5.3826, 1B
2009/03/18, 00:19:01, 6.994433, -104.836933, , , 341.0, 12.10, 340.5, 26.969, 1007.97, 120.7, 74.926, 339.4, , , , 33.3910, 27.4053, 1538.2864, 53.3143, 27.2804, 27.4053, 77.0, 5.4316, 1B
2009/03/18, 00:20:01, 6.997583, -104.838167, , , 336.0, 11.80, 340.4, 26.969, 1007.79, 129.8, 74.420, 338.8, , , , 33.3812, 27.4050, 1538.2749, 53.2999, 27.2715, 27.4050, 73.7, 5.2102, 1B
2009/03/18, 00:21:01, 7.000767, -104.839367, , , 340.0, 12.00, 341.4, 26.984, 1007.82, 141.1, 73.876, 340.4, , , , 33.3863, 27.4041, 1538.2774, 53.3058, 27.2839, 27.4041, 77.5, 5.5802, 1B
2009/03/18, 00:22:01, 7.003933, -104.840533, , , 342.0, 12.30, 340.6, 26.984, 1007.80, 127.0, 73.876, 341.1, , , , 33.3897, 27.4019, 1538.2783, 53.3095, 27.2925, 27.4019, 78.5, 5.8887, 1B
2009/03/18, 00:23:02, 7.007117, -104.841717, , , 339.0, 12.30, 341.0, 27.015, 1007.85, 66.8, 76.022, 340.0, , , , 33.3738, 27.3976, 1538.2504, 53.2819, 27.2573, 27.3976, 83.1, 5.9038, 1B
2009/03/18, 00:24:01, 7.010283, -104.842917, , , 339.0, 12.10, 340.7, 27.015, 1007.76, 59.0, 76.022, 339.8, , , , 33.3844, 27.3955, 1538.2580, 53.2953, 27.2545, 27.3955, 76.7, 5.2223, 1B
2009/03/18, 00:25:02, 7.013467, -104.844133, , , 338.0, 12.40, 341.6, 26.977, 1007.67, 60.2, 74.221, 340.8, , , , 33.4002, 27.3949, 1538.2722, 53.3166, 27.2650, 27.3949, 69.3, 6.1532, 1B
2009/03/18, 00:26:01, 7.016633, -104.845300, , , 340.0, 12.10, 341.1, 27.007, 1007.64, 69.6, 74.274, 339.9, , , , 33.3874, 27.3920, 1538.2526, 53.2957, 27.2644, 27.3920, 69.4, 6.3478, 1B
2009/03/18, 00:27:01, 7.019800, -104.846517, , , 340.0, 12.30, 340.5, 26.984, 1007.69, 78.5, 72.618, 339.9, , , , 33.3928, 27.3936, 1538.2619, 53.3050, 27.2897, 27.3936, 62.5, 5.8600, 1B
2009/03/18, 00:28:02, 7.022983, -104.847733, , , 338.0, 12.20, 340.4, 27.015, 1007.87, 130.5, 72.741, 340.5, , , , 33.4031, 27.3952, 1538.2760, 53.3211, 27.2888, 27.3952, 68.0, 5.8726, 1B
2009/03/18, 00:29:02, 7.026167, -104.848933, , , 339.0, 12.20, 340.6, 27.015, 1007.87, 125.5, 72.266, 340.5, , , , 33.3932, 27.3971, 1538.2698, 53.3090, 27.2854, 27.3971, 64.2, 5.8133, 1B
2009/03/18, 00:30:01, 7.029350, -104.850117, , , 341.0, 12.40, 340.9, 27.015, 1007.79, 116.6, 72.266, 340.1, , , , 33.3872, 27.3996, 1538.2664, 53.3018, 27.2840, 27.3996, 67.7, 5.7847, 1B
2009/03/18, 00:31:02, 7.032517, -104.851300, , , 340.0, 12.30, 340.6, 27.069, 1007.70, 159.2, 72.925, 339.7, , , , 33.3920, 27.4016, 1538.2787, 53.3118, 27.2847, 27.4016, 72.2, 5.3665, 1B
2009/03/18, 00:32:02, 7.035700, -104.852467, , , 338.0, 11.80, 341.1, 27.069, 1007.77, 166.4, 72.971, 340.5, , , , 33.3931, 27.4037, 1538.2846, 53.3155, 27.2851, 27.4037, 66.2, 6.0959, 1B
2009/03/18, 00:33:02, 7.038883, -104.853650, , , 342.0, 12.20, 340.8, 27.069, 1007.82, 143.7, 72.925, 340.8, , , , 33.3919, 27.4054, 1538.2871, 53.3155, 27.2865, 27.4054, 65.6, 5.5764, 1B
2009/03/18, 00:34:02, 7.042067, -104.854833, , , 338.0, 12.20, 341.7, 27.084, 1007.87, 115.4, 72.871, 340.5, , , , 33.3943, 27.4071, 1538.2935, 53.3206, 27.2959, 27.4071, 65.3, 6.2232, 1B
2009/03/18, 00:35:02, 7.045250, -104.855983, , , 344.0, 12.20, 341.1, 27.100, 1007.78, 94.9, 73.339, 340.8, , , , 33.3847, 27.4109, 1538.2919, 53.3108, 27.2916, 27.4109, 67.4, 5.6945, 1B
2009/03/18, 00:36:02, 7.048417, -104.857150, , , 339.0, 12.40, 341.2, 27.107, 1007.95, 85.6, 73.270, 340.3, , , , 33.3743, 27.4093, 1538.2773, 53.2945, 27.2743, 27.4093, 65.5, 6.1590, 1B
2009/03/18, 00:37:02, 7.051583, -104.858300, , , 340.0, 12.00, 341.0, 27.092, 1007.70, 77.2, 72.772, 340.1, , , , 33.3727, 27.4060, 1538.2682, 53.2889, 27.2713, 27.4060, 63.7, 6.2596, 1B
2009/03/18, 00:38:02, 7.054750, -104.859450, , , 341.0, 12.20, 341.0, 27.123, 1007.84, 67.3, 74.175, 340.6, , , , 33.3830, 27.4016, 1538.2691, 53.2990, 27.2746, 27.4016, 68.2, 6.3016, 1B
2009/03/18, 00:39:02, 7.057933, -104.860617, , , 339.0, 12.50, 341.0, 27.123, 1007.91, 60.2, 73.860, 340.6, , , , 33.3874, 27.4009, 1538.2722, 53.3046, 27.2801, 27.4009, 67.5, 5.9945, 1B
2009/03/18, 00:40:01, 7.061117, -104.861800, , , 341.0, 12.20, 341.0, 27.107, 1007.82, 55.3, 73.845, 339.9, , , , 33.3801, 27.3979, 1538.2606, 53.2925, 27.2687, 27.3979, 64.4, 5.8671, 1B
2009/03/18, 00:41:01, 7.064283, -104.863000, , , 337.0, 12.10, 340.6, 27.107, 1007.90, 51.9, 74.236, 339.5, , , , 33.3774, 27.3930, 1538.2449, 53.2829, 27.2663, 27.3930, 65.2, 6.4567, 1B
2009/03/18, 00:42:01, 7.067450, -104.864150, , , 337.0, 12.00, 341.2, 27.100, 1008.11, 50.5, 72.963, 340.2, , , , 33.3899, 27.3930, 1538.2559, 53.2996, 27.2835, 27.3930, 67.3, 6.1449, 1B
2009/03/18, 00:43:01, 7.070600, -104.865317, , , 338.0, 12.00, 340.1, 27.107, 1008.05, 48.9, 73.968, 340.1, , , , 33.3903, 27.3937, 1538.2588, 53.3026, 27.2959, 27.3937, 70.5, 5.3440, 1B
2009/03/18, 00:44:01, 7.073733, -104.866550, , , 336.0, 12.20, 340.2, 27.107, 1007.95, 42.6, 73.968, 339.4, , , , 33.3818, 27.3937, 1538.2487, 53.2887, 27.2848, 27.3937, 69.1, 5.8397, 1B
2009/03/18, 00:45:01, 7.076883, -104.867733, , , 344.0, 12.10, 342.2, 27.092, 1008.06, 32.9, 74.466, 340.8, , , , 33.3734, 27.3913, 1538.2366, 53.2754, 27.2644, 27.3913, 70.9, 5.7359, 1B
2009/03/18, 00:46:01, 7.080050, -104.868900, , , 340.0, 12.40, 340.7, 27.077, 1007.85, 30.7, 73.339, 340.7, , , , 33.3776, 27.3893, 1538.2354, 53.2788, 27.2596, 27.3893, 68.9, 6.5062, 1B
2009/03/18, 00:47:02, 7.083183, -104.870083, , , 339.0, 11.80, 341.7, 27.100, 1007.97, 29.5, 73.247, 340.7, , , , 33.4045, 27.3939, 1538.2745, 53.3218, 27.3033, 27.3939, 64.3, 6.1718, 1B
2009/03/18, 00:48:02, 7.086333, -104.871233, , , 340.0, 12.10, 340.9, 27.092, 1007.89, 29.4, 73.676, 340.1, , , , 33.3841, 27.3922, 1538.2491, 53.2911, 27.2615, 27.3922, 68.8, 5.9820, 1B
2009/03/18, 00:49:01, 7.089483, -104.872433, , , 337.0, 12.10, 341.9, 27.092, 1008.10, 28.5, 73.676, 340.0, , , , 33.3975, 27.3905, 1538.2608, 53.3090, 27.2682, 27.3905, 69.7, 5.7251, 1B
2009/03/18, 00:50:02, 7.092650, -104.873600, , , 338.0, 12.40, 341.2, 27.092, 1007.80, 23.2, 72.473, 339.7, , , , 33.3893, 27.3875, 1538.2440, 53.2937, 27.2586, 27.3875, 71.4, 5.6465, 1B
2009/03/18, 00:51:01, 7.095817, -104.874767, , , 338.0, 12.30, 340.8, 27.084, 1007.94, 17.4, 72.496, 340.4, , , , 33.3647, 27.3809, 1538.2055, 53.2521, 27.2453, 27.3809, 67.5, 5.2750, 1B
2009/03/18, 00:52:02, 7.098950, -104.875917, , , 339.0, 11.70, 341.0, 27.107, 1007.98, 12.7, 73.270, 340.4, , , , 33.3514, 27.3737, 1538.1727, 53.2258, 27.2220, 27.3737, 62.2, 5.3918, 1B
2009/03/18, 00:53:02, 7.102100, -104.877067, , , 341.0, 12.00, 342.0, 27.115, 1007.98, 11.4, 72.534, 341.1, , , , 33.3510, 27.3640, 1538.1503, 53.2155, 27.2233, 27.3640, 63.7, 6.5918, 1B
2009/03/18, 00:54:02, 7.105233, -104.878200, , , 341.0, 11.90, 341.3, 27.154, 1007.78, 11.7, 73.032, 340.3, , , , 33.3574, 27.3548, 1538.1363, 53.2152, 27.2158, 27.3548, 60.3, 7.5157, 1B
2009/03/18, 00:55:01, 7.108350, -104.879333, , , 339.0, 11.80, 341.9, 27.146, 1007.80, 11.4, 72.020, 340.7, , , , 33.3676, 27.3504, 1538.1383, 53.2258, 27.2209, 27.3504, 60.6, 7.6501, 1B
2009/03/18, 00:56:02, 7.111467, -104.880483, , , 340.0, 11.60, 341.8, 27.138, 1007.95, 11.3, 71.008, 340.7, , , , 33.3849, 27.3484, 1538.1509, 53.2477, 27.2386, 27.3484, 61.2, 7.4704, 1B
2009/03/18, 00:57:02, 7.114617, -104.881600, , , 341.0, 12.20, 340.9, 27.161, 1008.02, 11.4, 72.319, 340.4, , , , 33.4017, 27.3505, 1538.1735, 53.2737, 27.2508, 27.3505, 64.6, 6.8419, 1B
2009/03/18, 00:58:02, 7.117733, -104.882767, , , 341.0, 11.80, 341.3, 27.177, 1007.94, 11.4, 71.292, 340.3, , , , 33.3965, 27.3557, 1538.1797, 53.2716, 27.2556, 27.3557, 59.1, 7.5492, 1B
2009/03/18, 00:59:02, 7.120883, -104.883950, , , 337.0, 12.00, 340.6, 27.177, 1008.06, 11.3, 72.105, 340.5, , , , 33.3880, 27.3607, 1538.1820, 53.2647, 27.2546, 27.3607, 63.0, 8.3698, 1B
2009/03/18, 01:00:02, 7.124017, -104.885117, , , 339.0, 12.00, 340.9, 27.215, 1008.04, 10.7, 73.377, 340.7, , , , 33.3880, 27.3618, 1538.1845, 53.2658, 27.2593, 27.3618, 63.3, 7.7484, 1B
2009/03/18, 01:01:01, 7.127150, -104.886300, , , 341.0, 12.00, 340.5, 27.215, 1008.05, 9.6, 74.121, 339.7, , , , 33.3880, 27.3665, 1538.1940, 53.2700, 27.2657, 27.3665, 62.6, 7.0192, 1B
2009/03/18, 01:02:02, 7.130267, -104.887500, , , 339.0, 12.00, 341.2, 27.208, 1008.17, 8.6, 74.152, 339.9, , , , 33.3939, 27.3705, 1538.2104, 53.2830, 27.2749, 27.3705, 60.1, 6.7645, 1B
2009/03/18, 01:03:01, 7.133383, -104.888700, , , 339.0, 11.90, 340.8, 27.208, 1008.13, 8.1, 74.152, 341.0, , , , 33.3845, 27.3736, 1538.2061, 53.2722, 27.2681, 27.3736, 61.6, 6.8615, 1B
2009/03/18, 01:04:01, 7.136500, -104.889850, , , 341.0, 11.80, 341.7, 27.146, 1008.31, 6.9, 73.607, 341.2, , , , 33.3832, 27.3751, 1538.2081, 53.2718, 27.2681, 27.3751, 61.3, 7.5318, 1B
2009/03/18, 01:05:01, 7.139633, -104.891033, , , 336.0, 12.00, 340.5, 27.146, 1008.07, 6.4, 73.385, 339.9, , , , 33.3798, 27.3748, 1538.2050, 53.2672, 27.2707, 27.3748, 59.5, 7.3477, 1B
2009/03/18, 01:06:01, 7.142750, -104.892250, , , 339.0, 12.00, 340.6, 27.177, 1008.15, 5.9, 74.405, 340.5, , , , 33.3615, 27.3706, 1538.1775, 53.2375, 27.2298, 27.3706, 63.5, 6.9336, 1B
2009/03/18, 01:07:01, 7.145867, -104.893433, , , 341.0, 12.00, 340.5, 27.177, 1008.08, 5.4, 74.405, 340.6, , , , 33.3633, 27.3642, 1538.1665, 53.2344, 27.2288, 27.3642, 61.7, 6.8313, 1B
2009/03/18, 01:08:02, 7.149000, -104.894617, , , 339.0, 12.00, 341.2, 27.100, 1008.02, 5.0, 72.358, 340.1, , , , 33.3605, 27.3583, 1538.1475, 53.2231, 27.2229, 27.3583, 62.9, 7.1757, 1B
2009/03/18, 01:09:01, 7.152117, -104.895783, , , 340.0, 12.00, 341.5, 27.123, 1008.05, 4.7, 72.795, 339.8, , , , 33.3683, 27.3575, 1538.1539, 53.2335, 27.2458, 27.3575, 61.8, 6.6808, 1B
2009/03/18, 01:10:02, 7.155233, -104.896983, , , 336.0, 11.80, 340.1, 27.107, 1008.21, 4.2, 72.626, 339.6, , , , 33.3827, 27.3566, 1538.1671, 53.2530, 27.2526, 27.3566, 63.3, 6.9647, 1B
2009/03/18, 01:11:02, 7.158350, -104.898183, , , 337.0, 12.00, 340.0, 27.146, 1008.21, 3.6, 74.443, 340.8, , , , 33.3795, 27.3586, 1538.1683, 53.2504, 27.2494, 27.3586, 66.1, 6.8248, 1B
2009/03/18, 01:12:02, 7.161433, -104.899383, , , 342.0, 11.80, 341.0, 27.107, 1008.23, 3.2, 73.469, 340.7, , , , 33.3875, 27.3614, 1538.1831, 53.2646, 27.2703, 27.3614, 60.9, 6.5602, 1B
2009/03/18, 01:13:01, 7.164550, -104.900583, , , 336.0, 11.90, 340.9, 27.107, 1008.38, 2.9, 73.469, 340.2, , , , 33.4016, 27.3687, 1538.2113, 53.2907, 27.2927, 27.3687, 65.0, 6.8467, 1B
2009/03/18, 01:14:02, 7.167683, -104.901783, , , 338.0, 11.80, 340.7, 27.115, 1008.35, 2.7, 73.492, 339.9, , , , 33.3737, 27.3735, 1538.1958, 53.2573, 27.2626, 27.3735, 67.9, 6.3408, 1B
2009/03/18, 01:15:02, 7.170783, -104.902983, , , 337.0, 11.90, 341.1, 27.107, 1008.40, 2.4, 72.887, 340.5, , , , 33.3655, 27.3727, 1538.1853, 53.2449, 27.2533, 27.3727, 66.8, 6.4029, 1B
2009/03/18, 01:16:01, 7.173917, -104.904183, , , 341.0, 12.20, 341.5, 27.100, 1008.34, 2.3, 72.572, 341.3, , , , 33.3636, 27.3706, 1538.1781, 53.2398, 27.2431, 27.3706, 64.2, 6.7131, 1B
2009/03/18, 01:17:02, 7.177033, -104.905367, , , 339.0, 12.20, 341.0, 27.115, 1008.25, 1.9, 70.817, 340.8, , , , 33.3731, 27.3704, 1538.1882, 53.2533, 27.2640, 27.3704, 64.0, 7.1966, 1B
2009/03/18, 01:18:01, 7.180150, -104.906567, , , 340.0, 11.90, 340.2, 27.146, 1008.30, 1.8, 71.898, 340.2, , , , 33.3714, 27.3688, 1538.1852, 53.2504, 27.2670, 27.3688, 65.3, 7.0827, 1B
2009/03/18, 01:19:02, 7.183267, -104.907800, , , 342.0, 11.80, 341.7, 27.123, 1008.35, 1.6, 72.818, 341.0, , , , 33.3343, 27.3621, 1538.1283, 53.1898, 27.2124, 27.3621, 60.4, 6.0995, 1B
2009/03/18, 01:20:01, 7.186400, -104.908983, , , 339.0, 12.10, 340.7, 27.154, 1008.45, 1.4, 74.014, 340.3, , , , 33.3336, 27.3525, 1538.1136, 53.1825, 27.2080, 27.3525, 62.3, 6.4682, 1B
2009/03/18, 01:21:01, 7.189533, -104.910217, , , 339.0, 12.10, 340.8, 27.123, 1008.50, 1.1, 72.588, 340.9, , , , 33.3301, 27.3446, 1538.0866, 53.1671, 27.1971, 27.3446, 66.3, 6.0209, 1B
2009/03/18, 01:22:02, 7.192683, -104.911383, , , 339.0, 12.10, 341.2, 27.146, 1008.50, 0.9, 73.032, 341.0, , , , 33.3636, 27.3388, 1538.1067, 53.2078, 27.2173, 27.3388, 64.5, 6.3840, 1B
2009/03/18, 01:23:01, 7.195817, -104.912567, , , 339.0, 11.90, 341.0, 27.138, 1008.44, 0.7, 71.691, 340.9, , , , 33.3488, 27.3372, 1538.0901, 53.1864, 27.2132, 27.3372, 66.8, 6.5055, 1B
2009/03/18, 01:24:02, 7.198950, -104.913750, , , 340.0, 12.00, 341.1, 27.123, 1008.64, 0.5, 72.082, 340.5, , , , 33.3695, 27.3372, 1538.1093, 53.2145, 27.2345, 27.3372, 68.1, 6.1214, 1B
2009/03/18, 01:25:02, 7.202100, -104.914950, , , 341.0, 12.00, 341.0, 27.146, 1008.51, 0.5, 73.009, 339.9, , , , 33.3600, 27.3384, 1538.1020, 53.2023, 27.2271, 27.3384, 71.1, 6.4058, 1B
2009/03/18, 01:26:02, 7.205250, -104.916183, , , 338.0, 12.30, 340.7, 27.169, 1008.32, 0.5, 72.189, 340.6, , , , 33.3729, 27.3404, 1538.1201, 53.2226, 27.2386, 27.3404, 69.8, 6.7501, 1B
2009/03/18, 01:27:02, 7.208383, -104.917400, , , 340.0, 12.20, 340.7, 27.146, 1008.55, 0.5, 72.181, 340.5, , , , 33.3728, 27.3455, 1538.1316, 53.2277, 27.2505, 27.3455, 68.2, 6.2955, 1B
2009/03/18, 01:28:01, 7.211550, -104.918600, , , 337.0, 11.90, 342.1, 27.138, 1008.52, 0.3, 71.614, 340.7, , , , 33.3719, 27.3517, 1538.1406, 53.2308, 27.2634, 27.3517, 64.0, 5.8546, 1B
2009/03/18, 01:29:01, 7.214717, -104.919783, , , 339.0, 12.00, 341.0, 27.169, 1008.49, 0.3, 72.235, 340.3, , , , 33.3696, 27.3551, 1538.1483, 53.2322, 27.2676, 27.3551, 66.4, 6.8422, 1B
2009/03/18, 01:30:01, 7.217867, -104.921017, , , 337.0, 12.40, 340.9, 27.169, 1008.52, 0.1, 72.802, 340.2, , , , 33.3330, 27.3525, 1538.1075, 53.1793, 27.2363, 27.3525, 70.2, 6.2264, 1B
2009/03/18, 01:31:01, 7.221033, -104.922233, , , 339.0, 12.20, 341.0, 27.146, 1008.55, 0.1, 72.112, 340.5, , , , 33.3267, 27.3464, 1538.0875, 53.1643, 27.2105, 27.3464, 70.7, 6.5491, 1B
2009/03/18, 01:32:01, 7.224183, -104.923483, , , 340.0, 12.10, 341.0, 27.146, 1008.66, 0.1, 72.112, 340.8, , , , 33.3376, 27.3402, 1538.0852, 53.1495, 27.2121, 27.3402, 71.6, 6.4093, 1B
2009/03/18, 01:33:01, 7.227367, -104.924683, , , 338.0, 12.20, 341.0, 27.154, 1008.56, 0.1, 73.002, 340.3, , , , 33.3173, 27.3305, 1538.0418, 53.1350, 27.1888, 27.3305, 75.4, 5.7869, 1B
2009/03/18, 01:34:02, 7.230517, -104.925867, , , 340.0, 12.00, 340.6, 27.146, 1008.57, 0.1, 73.071, 340.2, , , , 33.3037, 27.3209, 1538.0027, 53.1047, 27.1696, 27.3209, 70.4, 6.4797, 1B
2009/03/18, 01:35:02, 7.233650, -104.927067, , , 337.0, 12.00, 339.8, 27.131, 1008.32, 0.1, 72.795, 339.3, , , , 33.3113, 27.3122, 1537.9911, 53.1067, 27.1681, 27.3122, 68.4, 6.3481, 1B
2009/03/18, 01:36:02, 7.236767, -104.928300, , , 338.0, 11.70, 340.4, 27.107, 1008.57, 0.1, 71.928, 340.2, , , , 33.3135, 27.3068, 1537.9812, 53.1043, 27.1748, 27.3068, 66.1, 6.4862, 1B
2009/03/18, 01:37:02, 7.239917, -104.929483, , , 342.0, 12.00, 340.3, 27.123, 1008.51, 0.1, 72.158, 339.7, , , , 33.3157, 27.3022, 1537.9731, 53.1028, 27.1686, 27.3022, 69.0, 6.4466, 1B
2009/03/18, 01:38:01, 7.243050, -104.930667, , , 340.0, 12.10, 341.0, 27.123, 1008.57, 0.1, 72.994, 340.6, , , , 33.3269, 27.3001, 1537.9802, 53.1166, 27.1806, 27.3001, 73.0, 6.1478, 1B
2009/03/18, 01:39:02, 7.246183, -104.931850, , , 340.0, 11.90, 341.5, 27.123, 1008.45, 0.1, 72.971, 340.8, , , , 33.3360, 27.2989, 1537.9871, 53.1283, 27.1751, 27.2989, 71.5, 6.0955, 1B
2009/03/18, 01:40:01, 7.249300, -104.933017, , , 340.0, 11.80, 341.5, 27.123, 1008.53, 0.1, 72.986, 340.7, , , , 33.3120, 27.2975, 1537.9585, 53.0928, 27.1707, 27.2975, 68.4, 7.0751, 1B
2009/03/18, 01:41:01, 7.252400, -104.934183, , , 341.0, 11.70, 340.4, 27.115, 1008.50, 0.1, 72.273, 340.8, , , , 33.3218, 27.2934, 1537.9594, 53.1024, 27.1721, 27.2934, 67.7, 6.5993, 1B
2009/03/18, 01:42:02, 7.255533, -104.935367, , , 338.0, 11.90, 341.3, 27.115, 1008.67, 0.2, 72.695, 340.1, , , , 33.3102, 27.2933, 1537.9471, 53.0860, 27.1756, 27.2933, 67.2, 6.7575, 1B
2009/03/18, 01:43:02, 7.258683, -104.936533, , , 343.0, 12.00, 341.7, 27.169, 1008.44, 0.2, 73.830, 340.7, , , , 33.3073, 27.2918, 1537.9406, 53.0804, 27.1740, 27.2918, 69.3, 6.0701, 1B
2009/03/18, 01:44:02, 7.261817, -104.937717, , , 340.0, 11.90, 342.4, 27.123, 1008.44, 0.1, 72.917, 341.4, , , , 33.2963, 27.2906, 1537.9263, 53.0636, 27.1607, 27.2906, 63.5, 6.2509, 1B
2009/03/18, 01:45:02, 7.264933, -104.938817, , , 339.0, 11.80, 340.9, 27.138, 1008.63, 0.2, 72.503, 340.7, , , , 33.2998, 27.2903, 1537.9293, 53.0682, 27.1683, 27.2903, 60.2, 6.5809, 1B
2009/03/18, 01:46:01, 7.268050, -104.940000, , , 339.0, 11.90, 341.1, 27.138, 1008.52, 0.2, 72.503, 340.1, , , , 33.3095, 27.2890, 1537.9387, 53.0815, 27.1586, 27.2890, 68.2, 6.5185, 1B
2009/03/18, 01:47:01, 7.271167, -104.941167, , , 339.0, 12.00, 341.2, 27.154, 1008.60, 0.4, 72.580, 340.5, , , , 33.3127, 27.2907, 1537.9423, 53.0862, 27.1778, 27.2907, 68.5, 6.8568, 1B
2009/03/18, 01:48:02, 7.274283, -104.942367, , , 342.0, 11.90, 341.3, 27.123, 1008.71, 0.3, 72.350, 341.1, , , , 33.3295, 27.2934, 1537.9678, 53.1134, 27.1907, 27.2934, 70.2, 6.2291, 1B
2009/03/18, 01:49:01, 7.277433, -104.943533, , , 341.0, 12.00, 340.7, 27.154, 1008.76, 0.1, 73.822, 340.6, , , , 33.3201, 27.2968, 1537.9637, 53.1027, 27.1929, 27.2968, 72.5, 6.3263, 1B
2009/03/18, 01:50:01, 7.280550, -104.944717, , , 339.0, 12.00, 340.0, 27.131, 1008.73, 0.1, 73.446, 339.8, , , , 33.3156, 27.3001, 1537.9676, 53.1002, 27.1957, 27.3001, 67.9, 5.4422, 1B
2009/03/18, 01:51:02, 7.283667, -104.945900, , , 341.0, 12.20, 342.4, 27.123, 1008.78, 0.1, 72.687, 341.4, , , , 33.3106, 27.3013, 1537.9657, 53.0947, 27.1852, 27.3013, 71.1, 6.5116, 1B
2009/03/18, 01:52:02, 7.286800, -104.947067, , , 338.0, 12.20, 340.2, 27.154, 1008.61, 0.1, 73.876, 339.7, , , , 33.3216, 27.3043, 1537.9841, 53.1133, 27.2015, 27.3043, 73.0, 6.5448, 1B
2009/03/18, 01:53:02, 7.289933, -104.948300, , , 342.0, 11.90, 340.9, 27.146, 1008.66, 0.1, 74.657, 339.8, , , , 33.3361, 27.3109, 1538.0144, 53.1405, 27.2303, 27.3109, 67.9, 6.0170, 1B
2009/03/18, 01:54:01, 7.293050, -104.949517, , , 338.0, 11.90, 340.8, 27.115, 1008.75, 0.1, 74.121, 340.4, , , , 33.3386, 27.3186, 1538.0318, 53.1507, 27.2392, 27.3186, 68.4, 5.5997, 1B
2009/03/18, 01:55:01, 7.296183, -104.950733, , , 340.0, 12.30, 341.4, 27.115, 1008.81, 0.1, 73.753, 341.1, , , , 33.3367, 27.3274, 1538.0485, 53.1564, 27.2390, 27.3274, 66.8, 6.7432, 1B
2009/03/18, 01:56:02, 7.299317, -104.951933, , , 340.0, 12.00, 340.8, 27.123, 1008.71, 0.1, 74.374, 340.2, , , , 33.3483, 27.3366, 1538.0855, 53.1839, 27.2621, 27.3366, 68.6, 6.1516, 1B
2009/03/18, 01:57:02, 7.302450, -104.953150, , , 336.0, 11.90, 340.1, 27.115, 1008.83, 0.1, 74.811, 339.7, , , , 33.3183, 27.3433, 1538.0689, 53.1481, 27.2355, 27.3433, 64.7, 5.9832, 1B
2009/03/18, 01:58:01, 7.305583, -104.954333, , , 340.0, 12.10, 341.0, 27.115, 1008.88, 0.1, 74.811, 341.0, , , , 33.3025, 27.3442, 1538.0535, 53.1263, 27.2183, 27.3442, 68.2, 5.7110, 1B
2009/03/18, 01:59:02, 7.308733, -104.955517, , , 338.0, 11.90, 341.8, 27.077, 1008.80, 0.1, 74.757, 340.4, , , , 33.3075, 27.3430, 1538.0568, 53.1324, 27.2203, 27.3430, 65.0, 6.3961, 1B
2009/03/18, 02:00:02, 7.311867, -104.956700, , , 340.0, 11.80, 340.9, 27.115, 1008.76, 0.1, 75.271, 340.8, , , , 33.3162, 27.3441, 1538.0685, 53.1459, 27.2380, 27.3441, 65.7, 6.7654, 1B
2009/03/18, 02:01:02, 7.315033, -104.957850, , , 338.0, 12.10, 341.3, 27.069, 1008.93, 0.1, 74.497, 340.3, , , , 33.3265, 27.3456, 1538.0828, 53.1621, 27.2449, 27.3456, 67.9, 6.3423, 1B
2009/03/18, 02:02:01, 7.318183, -104.959067, , , 337.0, 12.10, 341.5, 27.069, 1008.71, 0.2, 74.497, 340.3, , , , 33.3276, 27.3492, 1538.0907, 53.1666, 27.2518, 27.3492, 69.3, 6.0592, 1B
2009/03/18, 02:03:01, 7.321333, -104.960250, , , 342.0, 12.20, 341.3, 27.084, 1008.73, 0.1, 74.504, 340.8, , , , 33.3200, 27.3514, 1538.0881, 53.1583, 27.2413, 27.3514, 65.8, 6.5465, 1B
2009/03/18, 02:04:02, 7.324483, -104.961483, , , 339.0, 12.20, 341.0, 27.107, 1008.77, 0.4, 75.822, 340.5, , , , 33.3215, 27.3524, 1538.0929, 53.1618, 27.2388, 27.3524, 66.3, 6.1470, 1B
2009/03/18, 02:05:02, 7.327617, -104.962683, , , 340.0, 11.80, 341.3, 27.069, 1008.86, 0.3, 74.136, 340.4, , , , 33.3374, 27.3562, 1538.1183, 53.1883, 27.2568, 27.3562, 63.8, 6.5395, 1B